Waarnemingen

Advertentie
Mijn weer
Capo Palinuro, Italië (16310): temperatuur & dauwpunt: 16.07.2018 14:00:00 - 22.07.2018 14:00:00 (CEST)Capo Palinuro, Italië (16310): windsnelheid: 16.07.2018 14:00:00 - 22.07.2018 14:00:00 (CEST)Capo Palinuro, Italië (16310): windrichting: 16.07.2018 14:00:00 - 22.07.2018 14:00:00 (CEST)Capo Palinuro, Italië (16310): luchtdruk: 16.07.2018 14:00:00 - 22.07.2018 14:00:00 (CEST)Capo Palinuro, Italië (16310): zicht: 16.07.2018 14:00:00 - 22.07.2018 14:00:00 (CEST)Capo Palinuro, Italië (16310): Zonneschijnduur: 16.07.2018 14:00:00 - 22.07.2018 14:00:00 (CEST)
Datum & Tijd tt [°C] td [°C] ff [km/u] ff [kn] dd ppp [hPa] vv [km] sd [min]
22.07.2018 14:00:00 29,0 26,0 9 5 ZZO 1010,9 15 60
22.07.2018 13:00:00 30,0 26,2 0 0 N 1010,8 15 60
22.07.2018 12:00:00 29,8 26,0 4 2 N 1010,8 15 60
22.07.2018 11:00:00 28,8 26,0 0 0 N 1010,9 10 30
22.07.2018 10:00:00 27,4 24,7 15 8 ZZO 1011,0 15 24
22.07.2018 09:00:00 28,0 26,2 15 8 ZZO 1010,1 15 0
22.07.2018 08:00:00 27,0 25,2 18 10 ZZO 1010,1 15 0
22.07.2018 07:00:00 27,4 23,7 18 10 ONO 1010,6 20 -
22.07.2018 06:00:00 27,2 22,4 9 5 Z 1010,7 20 -
22.07.2018 05:00:00 28,0 21,1 0 0 N 1010,9 20 -
22.07.2018 04:00:00 28,8 18,9 0 0 N 1010,8 20 -
22.07.2018 03:00:00 28,8 18,9 0 0 N 1010,8 20 -
22.07.2018 02:00:00 29,0 17,5 0 0 N 1010,9 20 -
22.07.2018 01:00:00 29,0 15,9 0 0 N 1010,9 20 -
22.07.2018 00:00:00 29,0 14,0 0 0 N 1010,7 20 -
21.07.2018 23:00:00 29,0 11,1 0 0 N 1010,6 20 -
21.07.2018 22:00:00 29,2 12,2 0 0 N 1010,7 20 -
21.07.2018 21:00:00 29,0 14,0 0 0 N 1010,9 20 -
21.07.2018 20:00:00 28,0 20,3 18 10 Z 1011,0 20 24
21.07.2018 19:00:00 28,0 22,9 15 8 NNO 1012,0 20 60
21.07.2018 18:00:00 27,0 25,2 15 8 Z 1012,5 20 60
21.07.2018 17:00:00 27,6 23,8 11 6 Z 1012,8 20 60
21.07.2018 16:00:00 29,0 24,8 11 6 Z 1012,8 20 60
21.07.2018 15:00:00 28,6 24,4 11 6 ZZO 1012,8 20 60
21.07.2018 14:00:00 30,0 24,9 18 10 NNO 1012,9 20 60
21.07.2018 13:00:00 29,0 24,1 15 8 ZZO 1012,9 20 60
21.07.2018 12:00:00 28,4 25,0 18 10 ONO 1013,0 20 60
21.07.2018 11:00:00 28,0 24,6 9 5 Z 1013,1 20 60
21.07.2018 10:00:00 26,8 23,7 15 8 Z 1013,0 20 60
21.07.2018 09:00:00 26,0 22,7 13 7 W 1013,0 20 60
21.07.2018 08:00:00 25,0 22,7 5 3 W 1013,2 20 60
21.07.2018 07:00:00 25,0 22,7 8 4 WNW 1013,1 20 60
21.07.2018 06:00:00 25,0 22,9 4 2 W 1013,2 20 -
21.07.2018 05:00:00 25,0 22,9 5 3 W 1013,2 20 -
21.07.2018 04:00:00 24,8 22,7 2 1 WNW 1013,2 20 -
21.07.2018 03:00:00 24,8 22,7 5 3 W 1013,2 20 -
21.07.2018 02:00:00 25,0 22,7 8 4 W 1013,2 20 -
21.07.2018 01:00:00 25,0 22,7 5 3 NNW 1013,2 20 -
21.07.2018 00:00:00 25,2 22,5 5 3 WNW 1013,1 20 -
20.07.2018 23:00:00 25,2 22,7 5 3 NW 1013,1 20 -
20.07.2018 22:00:00 26,0 24,2 8 4 N 1013,0 20 -
20.07.2018 21:00:00 26,8 25,4 11 6 WNW 1013,0 20 -
20.07.2018 20:00:00 27,2 25,4 15 8 Z 1012,9 20 60
20.07.2018 19:00:00 28,0 25,4 9 5 Z 1013,0 20 60
20.07.2018 18:00:00 28,4 25,2 11 6 Z 1012,9 20 60
20.07.2018 17:00:00 29,0 24,8 15 8 ZZO 1012,9 20 60
20.07.2018 16:00:00 29,0 25,6 8 4 ZZO 1012,9 20 60
20.07.2018 15:00:00 29,0 25,2 15 8 ZZW 1012,9 20 60
20.07.2018 14:00:00 29,0 25,4 5 3 ZZW 1012,9 20 60
20.07.2018 13:00:00 29,4 25,2 11 6 WZW 1012,7 20 60
20.07.2018 12:00:00 29,0 25,4 15 8 ZZW 1012,7 20 60
20.07.2018 11:00:00 28,8 25,2 11 6 Z 1012,7 20 60
20.07.2018 10:00:00 27,2 24,3 11 6 WZW 1012,6 20 60
20.07.2018 09:00:00 26,6 24,1 8 4 ZZW 1012,2 20 60
20.07.2018 08:00:00 26,2 23,1 9 5 ZZW 1012,1 20 60
20.07.2018 07:00:00 25,2 23,6 0 0 N 1012,2 20 6
20.07.2018 06:00:00 25,2 23,3 5 3 NNW 1012,2 20 -
20.07.2018 05:00:00 25,4 23,7 5 3 NNW 1012,2 20 -
20.07.2018 04:00:00 25,4 23,5 4 2 NW 1012,2 20 -
20.07.2018 03:00:00 25,4 23,5 5 3 WNW 1012,1 20 -
20.07.2018 02:00:00 25,0 23,1 5 3 NW 1012,1 20 -
20.07.2018 01:00:00 25,0 23,1 0 0 N 1012,1 20 -
20.07.2018 00:00:00 25,4 23,5 0 0 N 1012,1 20 -
19.07.2018 23:00:00 26,2 24,4 0 0 N 1012,0 20 -
19.07.2018 22:00:00 26,4 24,6 0 0 N 1012,0 20 -
19.07.2018 21:00:00 27,0 23,5 0 0 N 1012,1 20 -
19.07.2018 20:00:00 27,0 25,0 16 9 WNW 1012,3 20 30
19.07.2018 19:00:00 28,0 25,8 15 8 W 1012,5 20 60
19.07.2018 18:00:00 28,8 25,8 13 7 ZW 1012,7 20 60
19.07.2018 17:00:00 28,8 25,2 11 6 ZW 1012,8 20 60
19.07.2018 16:00:00 28,6 25,6 13 7 ZW 1012,9 20 60
19.07.2018 15:00:00 28,6 25,4 16 9 ZZW 1012,9 20 60
19.07.2018 14:00:00 29,8 25,3 18 10 ZZW 1012,8 20 60
19.07.2018 13:00:00 29,8 26,2 21 11 ZZW 1012,8 20 60
19.07.2018 12:00:00 27,6 24,2 21 11 ZW 1012,9 20 60
19.07.2018 11:00:00 27,4 24,1 16 9 Z 1012,9 20 60
19.07.2018 10:00:00 26,6 23,9 11 6 Z 1013,0 20 60
19.07.2018 09:00:00 26,4 24,6 11 6 Z 1012,9 20 60
19.07.2018 08:00:00 25,8 23,1 18 10 Z 1012,9 20 0
19.07.2018 07:00:00 25,0 23,2 15 8 ZZO 1012,9 20 -
19.07.2018 06:00:00 25,0 23,2 15 8 ZZO 1013,2 20 -
19.07.2018 05:00:00 25,0 23,2 0 0 N 1013,2 20 -
19.07.2018 04:00:00 25,0 22,9 0 0 N 1013,2 20 -
19.07.2018 03:00:00 25,2 23,1 0 0 N 1013,3 20 -
19.07.2018 02:00:00 26,0 23,9 0 0 N 1013,1 20 -
19.07.2018 01:00:00 25,4 22,7 0 0 N 1013,2 20 -
19.07.2018 00:00:00 25,4 23,7 0 0 N 1013,0 20 -
18.07.2018 23:00:00 26,0 24,2 0 0 N 1012,7 20 -
18.07.2018 22:00:00 26,2 24,4 0 0 N 1012,4 20 -
18.07.2018 21:00:00 27,0 25,2 0 0 N 1012,3 20 -
18.07.2018 20:00:00 27,0 25,2 11 6 NNO 1012,3 20 24
18.07.2018 19:00:00 28,4 25,6 11 6 NNO 1012,5 20 60
18.07.2018 18:00:00 28,6 24,8 15 8 NNO 1012,6 20 60
18.07.2018 17:00:00 28,8 23,5 15 8 OZO 1012,7 20 60
18.07.2018 16:00:00 29,4 22,6 15 8 OZO 1012,6 20 60
18.07.2018 15:00:00 29,0 21,8 18 10 NO 1012,7 20 60
18.07.2018 14:00:00 29,0 21,8 15 8 ONO 1012,5 20 60
18.07.2018 13:00:00 27,4 22,6 18 10 ZZO 1012,4 20 60
18.07.2018 12:00:00 27,6 23,8 11 6 ZZW 1012,3 20 60
18.07.2018 11:00:00 26,8 23,5 13 7 ZZO 1012,3 20 60
18.07.2018 10:00:00 26,2 22,9 8 4 Z 1012,1 20 60
18.07.2018 09:00:00 25,6 22,9 5 3 ZZW 1012,1 20 60
18.07.2018 08:00:00 25,0 22,3 4 2 NNO 1011,7 20 0
18.07.2018 07:00:00 24,4 21,7 0 0 N 1011,4 20 -
18.07.2018 06:00:00 24,4 22,7 4 2 ZO 1011,3 20 -
18.07.2018 05:00:00 24,0 21,7 4 2 N 1011,4 20 -
18.07.2018 04:00:00 23,8 21,1 5 3 NNO 1011,4 20 -
18.07.2018 03:00:00 - - - - - - - -
18.07.2018 02:00:00 24,0 22,3 4 2 NNO 1011,4 20 -
18.07.2018 01:00:00 24,6 22,9 4 2 NNO 1011,2 20 -
18.07.2018 00:00:00 25,0 23,1 4 2 N 1011,1 20 -
17.07.2018 23:00:00 25,4 23,3 5 3 NW 1010,6 20 -
17.07.2018 22:00:00 25,6 23,8 8 4 NW 1010,0 20 -
17.07.2018 21:00:00 25,6 23,8 15 8 NNW 1009,9 20 -
17.07.2018 20:00:00 26,0 24,2 13 7 NNW 1009,4 20 54
17.07.2018 19:00:00 26,4 24,4 15 8 NNW 1009,4 20 60
17.07.2018 18:00:00 27,4 24,2 11 6 N 1009,3 20 60
17.07.2018 17:00:00 27,8 23,0 13 7 NNW 1009,3 20 60
17.07.2018 16:00:00 28,0 22,5 11 6 NNW 1009,2 20 60
17.07.2018 15:00:00 27,2 22,6 11 6 NNO 1009,2 20 60
17.07.2018 14:00:00 26,0 23,9 9 5 N 1009,3 20 24
17.07.2018 13:00:00 27,0 23,7 11 6 N 1009,0 20 48
17.07.2018 12:00:00 26,6 23,7 16 9 NNW 1009,0 20 60
17.07.2018 11:00:00 26,0 24,2 9 5 NNO 1009,0 20 24
17.07.2018 10:00:00 26,8 24,7 22 12 WNW 1009,0 15 24
17.07.2018 09:00:00 26,8 24,7 15 8 NNW 1009,1 15 36
17.07.2018 08:00:00 26,4 24,4 18 10 NNW 1009,9 15 30
17.07.2018 07:00:00 26,0 24,2 9 5 NNW 1010,1 20 48
17.07.2018 06:00:00 - - - - - - - -
17.07.2018 05:00:00 25,4 24,0 8 4 WNW 1011,1 20 -
17.07.2018 04:00:00 26,0 24,4 0 0 N 1011,1 20 -
17.07.2018 03:00:00 26,0 24,2 0 0 N 1011,1 20 -
17.07.2018 02:00:00 27,0 25,2 9 5 NNW 1011,0 20 -
17.07.2018 01:00:00 27,0 25,2 8 4 WNW 1011,0 20 -
17.07.2018 00:00:00 27,0 23,5 0 0 N 1011,2 20 -
16.07.2018 23:00:00 27,0 23,3 15 8 NNW 1012,1 20 -
16.07.2018 22:00:00 27,6 25,4 15 8 WNW 1013,0 20 -
16.07.2018 21:00:00 27,6 24,2 0 0 N 1013,5 20 0
16.07.2018 20:00:00 27,8 26,0 9 5 WNW 1014,0 20 0
16.07.2018 19:00:00 28,0 24,8 0 0 N 1014,0 20 60
16.07.2018 18:00:00 28,0 24,7 9 5 WNW 1014,0 20 60
16.07.2018 17:00:00 29,8 26,0 9 5 NNW 1013,8 20 60
16.07.2018 16:00:00 30,0 26,8 11 6 NW 1013,8 20 60
16.07.2018 15:00:00 30,0 25,7 0 0 N 1014,6 20 60
16.07.2018 14:00:00 30,0 25,7 9 5 WNW 1014,8 20 60

tt = temperatuur
td = dauwpunt
ff = windsnelheid
dd = windrichting
ppp = luchtdruk
vv = zicht
sd = Zonneschijnduur

Weerstations in de omgeving